Regional Weather Roundup
Issued by NWS

Home | Current Version | Previous Version | Graphics & Text | Print | Product List | Glossary On
Versions: 1 2 3 4 5 6 7 8 9 10 11 12 13 14 15 16 17 18 19 20 21 22 23 24 25 26 27 28 29 30 31 32 33 34 35 36 37 38 39 40 41 42 43 44 45 46 47 48 49 50
000
ASUS45 KCYS 241610
RWRWY

WYOMING REGIONAL WEATHER ROUNDUP
NATIONAL WEATHER SERVICE CHEYENNE WY
1000 AM MDT SAT JUN 24 2017

NOTE:  "FAIR" INDICATES FEW OR NO CLOUDS BELOW 12,000 FEET
WITH NO SIGNIFICANT WEATHER AND/OR OBSTRUCTIONS TO VISIBILITY.

WYZ001-241700-
YELLOWSTONE NATIONAL PARK

CITY           SKY/WX    TMP DP  RH WIND       PRES   REMARKS
LK YELLOWSTONE   N/A     49  31  49 CALM      30.45F
W YELLOWSTONE  NOT AVBL

$$
WYZ002>013-054>058-071-098>099-241700-
NORTHERN WYOMING

CITY           SKY/WX    TMP DP  RH WIND       PRES   REMARKS
JACKSON        SUNNY     55  34  44 CALM      30.38F
CODY           FAIR      61  34  36 NE7       30.38S
GREYBULL       FAIR      65  33  30 NW5       30.32S
WORLAND        FAIR      63  36  36 W3        30.34S
SHERIDAN       FAIR      66  37  34 N8        30.34S
BUFFALO        FAIR      62  35  36 N16G24    30.36F
GILLETTE         N/A     62  35  36 N9        30.33F
NEWCASTLE      FAIR      55  28  35 N12       30.34S

$$
WYZ014>020-022>026-101>103-241700-
CENTRAL WYOMING

CITY           SKY/WX    TMP DP  RH WIND       PRES   REMARKS
BIG PINEY      FAIR      58  33  39 S9        30.42S
PINEDALE       FAIR      55  32  41 CALM      30.42F
DUBOIS         FAIR      54  30  40 E3        30.41S
LANDER         FAIR      60  35  39 NW3       30.37S
RIVERTON       FAIR      60  33  36 VRB5      30.38S
CASPER         FAIR      62  30  29 N5        30.37S
DOUGLAS        FAIR      65  32  29 VRB3      30.35S

$$
WYZ021-027>030-104>119-241700-
SOUTHERN WYOMING

CITY           SKY/WX    TMP DP  RH WIND       PRES   REMARKS
EVANSTON       FAIR      60  35  39 VRB3      30.39S
KEMMERER         N/A     59  32  36 SE6       30.42S
FORT BRIDGER   FAIR      60  33  35 SE8       30.43F
ROCK SPRINGS   FAIR      60  30  32 E9        30.40S
DIXON          FAIR      60  36  40 SW3       30.39F
RAWLINS        FAIR      60  32  34 NE9       30.40R
SARATOGA       FAIR      57  34  41 N12G17    30.40S
LARAMIE        FAIR      57  33  40 SE8       30.38S
CHEYENNE       PTSUNNY   59  30  33 SE8       30.37S
TORRINGTON     PTSUNNY   62  33  33 SW6       30.31S
PINE BLUFFS    FAIR      63  32  31 CALM      30.34S

$$



USA.gov is the U.S. government's official web portal to all federal, state and local government web resources and services.